When you browse on this site, cookies collect data to enhance your experience and personalize the content and advertising you see.
Visit our Privacy Policy to learn more. By continuing to use the site, you agree to this use of cookies and data.
  • In Hungary
  • List of Countries
  • For 7 days
  • Water Temperature
  • Satellite Maps
  • Weather Map
  • News
  • Weather Widgets
  • user-avatar
    Login

    Hourly Weather Mansa

    Today, 18 November, Sunday

    Time Temperature Precipitation Wind Pressure Humidity
    00:00 +23°C° 0.4 mm 2 mps 660 mmHg 76%
    01:00 +23°C° 0.4 mm 1 mps 660 mmHg 78%
    02:00 +22°C° 0 mm 1 mps 660 mmHg 84%
    03:00 +22°C° 0.4 mm 1 mps 660 mmHg 85%
    04:00 +22°C° 0.4 mm 1 mps 660 mmHg 86%
    05:00 +21°C° 0.4 mm 1 mps 660 mmHg 87%
    06:00 +22°C° 0.3 mm 1 mps 660 mmHg 85%
    07:00 +23°C° 0.3 mm 1 mps 660 mmHg 82%
    08:00 +23°C° 0.3 mm 2 mps 661 mmHg 80%
    09:00 +25°C° 0.1 mm 2 mps 661 mmHg 72%
    10:00 +26°C° 0.1 mm 2 mps 661 mmHg 65%
    11:00 +28°C° 0.1 mm 2 mps 661 mmHg 57%
    12:00 +29°C° 0.1 mm 1 mps 661 mmHg 53%
    13:00 +30°C° 0.1 mm 1 mps 660 mmHg 48%
    14:00 +31°C° 0.1 mm 1 mps 660 mmHg 43%
    15:00 +30°C° 0 mm 1 mps 660 mmHg 47%
    16:00 +29°C° 0 mm 2 mps 659 mmHg 50%
    17:00 +28°C° 0 mm 2 mps 659 mmHg 53%
    18:00 +27°C° 0.2 mm 1 mps 659 mmHg 60%
    19:00 +25°C° 0.2 mm 1 mps 659 mmHg 67%
    20:00 +23°C° 0.2 mm 1 mps 659 mmHg 74%
    21:00 +23°C° 0.7 mm 1 mps 659 mmHg 77%
    22:00 +22°C° 0.7 mm 1 mps 659 mmHg 80%
    23:00 +22°C° 0.7 mm 1 mps 659 mmHg 82%

    Tomorrow, 19 November, Monday

    Time Temperature Precipitation Wind Pressure Humidity
    00:00 +22°C° 0.7 mm 1 mps 659 mmHg 84%
    01:00 +22°C° 0.7 mm 1 mps 659 mmHg 85%
    02:00 +22°C° 0.7 mm 1 mps 659 mmHg 87%
    03:00 +22°C° 0.6 mm 1 mps 659 mmHg 87%
    04:00 +21°C° 0.6 mm 1 mps 659 mmHg 88%
    05:00 +19°C° 0.6 mm 0 mps 659 mmHg 88%
    06:00 +20°C° 0.8 mm 0 mps 660 mmHg 86%
    07:00 +21°C° 0.8 mm 0 mps 660 mmHg 83%
    08:00 +21°C° 0.8 mm 0 mps 661 mmHg 81%
    09:00 +23°C° 1.5 mm 0 mps 661 mmHg 74%
    10:00 +25°C° 1.5 mm 0 mps 661 mmHg 66%
    11:00 +27°C° 1.5 mm 0 mps 662 mmHg 59%
    12:00 +30°C° 0.3 mm 1 mps 661 mmHg 56%
    13:00 +30°C° 0.3 mm 1 mps 660 mmHg 53%
    14:00 +30°C° 0.3 mm 2 mps 660 mmHg 49%
    15:00 +29°C° 0.1 mm 2 mps 659 mmHg 52%
    16:00 +29°C° 0.1 mm 1 mps 659 mmHg 55%
    17:00 +28°C° 0.1 mm 1 mps 658 mmHg 58%
    18:00 +26°C° 0 mm 1 mps 658 mmHg 63%
    19:00 +25°C° 0 mm 1 mps 659 mmHg 68%
    20:00 +24°C° 0 mm 1 mps 659 mmHg 72%
    21:00 +23°C° 0.1 mm 1 mps 659 mmHg 74%
    22:00 +23°C° 0.1 mm 1 mps 659 mmHg 76%
    23:00 +22°C° 0.1 mm 1 mps 660 mmHg 77%

    Day after tomorrow, 20 November, Tuesday

    Time Temperature Precipitation Wind Pressure Humidity
    00:00 +22°C° 0.5 mm 1 mps 659 mmHg 80%
    01:00 +22°C° 0.5 mm 1 mps 659 mmHg 83%
    02:00 +21°C° 0.5 mm 1 mps 659 mmHg 86%
    03:00 +21°C° 0.6 mm 1 mps 659 mmHg 87%
    04:00 +21°C° 0.6 mm 1 mps 659 mmHg 88%
    05:00 +21°C° 0.6 mm 1 mps 659 mmHg 88%
    06:00 +22°C° 0.1 mm 1 mps 660 mmHg 85%
    07:00 +21°C° 0.1 mm 0 mps 660 mmHg 82%
    08:00 +22°C° 0.1 mm 0 mps 661 mmHg 79%
    09:00 +25°C° 0 mm 1 mps 661 mmHg 71%
    10:00 +27°C° 0 mm 1 mps 661 mmHg 64%
    11:00 +28°C° 0 mm 2 mps 661 mmHg 57%
    12:00 +29°C° 0 mm 2 mps 661 mmHg 52%
    13:00 +31°C° 0 mm 2 mps 660 mmHg 46%
    14:00 +32°C° 0 mm 2 mps 660 mmHg 41%
    15:00 +31°C° 0 mm 2 mps 659 mmHg 44%
    16:00 +30°C° 0 mm 2 mps 659 mmHg 46%
    17:00 +29°C° 0 mm 2 mps 658 mmHg 49%
    18:00 +27°C° 0.4 mm 2 mps 658 mmHg 57%
    19:00 +25°C° 0.4 mm 1 mps 658 mmHg 65%
    20:00 +23°C° 0.4 mm 1 mps 658 mmHg 74%
    21:00 +23°C° 0.1 mm 1 mps 659 mmHg 74%
    22:00 +22°C° 0.1 mm 1 mps 659 mmHg 74%
    23:00 +22°C° 0.1 mm 1 mps 659 mmHg 74%

    21 November, Wednesday

    Time Temperature Precipitation Wind Pressure Humidity
    00:00 +22°C° 0.1 mm 1 mps 659 mmHg 77%
    01:00 +21°C° 0.1 mm 1 mps 658 mmHg 79%
    02:00 +21°C° 0.1 mm 1 mps 657 mmHg 82%
    03:00 +21°C° 0.1 mm 1 mps 658 mmHg 84%
    04:00 +18°C° 0.1 mm 0 mps 658 mmHg 85%
    05:00 +18°C° 0.1 mm 0 mps 658 mmHg 87%
    06:00 +20°C° 0 mm 0 mps 659 mmHg 82%
    07:00 +22°C° 0 mm 0 mps 660 mmHg 76%
    08:00 +23°C° 0 mm 0 mps 661 mmHg 71%
    09:00 +26°C° 0 mm 0 mps 661 mmHg 61%
    10:00 +29°C° 0 mm 0 mps 662 mmHg 52%
    11:00 +32°C° 0 mm 0 mps 662 mmHg 43%
    12:00 +32°C° 0 mm 0 mps 661 mmHg 39%
    13:00 +33°C° 0 mm 0 mps 660 mmHg 35%
    14:00 +35°C° 0 mm 1 mps 659 mmHg 32%
    15:00 +34°C° 0 mm 1 mps 659 mmHg 34%
    16:00 +33°C° 0 mm 1 mps 658 mmHg 35%
    17:00 +32°C° 0 mm 1 mps 658 mmHg 37%
    18:00 +30°C° 0 mm 1 mps 658 mmHg 41%
    19:00 +28°C° 0 mm 1 mps 658 mmHg 45%
    20:00 +26°C° 0 mm 1 mps 658 mmHg 50%
    21:00 +26°C° 0.1 mm 1 mps 659 mmHg 53%
    22:00 +25°C° 0.1 mm 1 mps 659 mmHg 57%
    23:00 +25°C° 0.1 mm 2 mps 659 mmHg 61%

    22 November, Thursday

    Time Temperature Precipitation Wind Pressure Humidity
    00:00 +24°C° 0.3 mm 2 mps 658 mmHg 67%
    01:00 +23°C° 0.3 mm 1 mps 658 mmHg 72%
    02:00 +23°C° 0.3 mm 1 mps 658 mmHg 78%
    03:00 +22°C° 0 mm 1 mps 658 mmHg 80%
    04:00 +22°C° 0 mm 1 mps 658 mmHg 81%
    05:00 +22°C° 0 mm 1 mps 658 mmHg 83%
    06:00 +23°C° 0 mm 1 mps 659 mmHg 78%
    07:00 +24°C° 0 mm 1 mps 660 mmHg 74%
    08:00 +25°C° 0 mm 1 mps 660 mmHg 69%
    09:00 +27°C° 0.2 mm 1 mps 661 mmHg 62%
    10:00 +29°C° 0.2 mm 1 mps 661 mmHg 55%
    11:00 +31°C° 0.2 mm 2 mps 661 mmHg 47%
    12:00 +32°C° 0 mm 1 mps 660 mmHg 44%
    13:00 +33°C° 0 mm 1 mps 659 mmHg 41%
    14:00 +33°C° 0 mm 1 mps 659 mmHg 38%
    15:00 +32°C° 0 mm 1 mps 658 mmHg 42%
    16:00 +31°C° 0 mm 1 mps 658 mmHg 46%
    17:00 +30°C° 0 mm 1 mps 658 mmHg 49%
    18:00 +29°C° 0 mm 1 mps 658 mmHg 53%
    19:00 +28°C° 0 mm 1 mps 658 mmHg 57%
    20:00 +26°C° 0 mm 2 mps 658 mmHg 61%
    21:00 +25°C° 0.8 mm 1 mps 659 mmHg 67%
    22:00 +24°C° 0.8 mm 1 mps 659 mmHg 73%
    23:00 +24°C° 0.8 mm 1 mps 659 mmHg 79%

    23 November, Friday

    Time Temperature Precipitation Wind Pressure Humidity
    00:00 +23°C° 0.5 mm 1 mps 658 mmHg 82%
    01:00 +23°C° 0.5 mm 1 mps 658 mmHg 84%
    02:00 +22°C° 0.5 mm 1 mps 657 mmHg 87%
    03:00 +22°C° 1.8 mm 1 mps 658 mmHg 88%
    04:00 +22°C° 1.8 mm 1 mps 658 mmHg 88%
    05:00 +22°C° 1.8 mm 1 mps 659 mmHg 88%
    06:00 +23°C° 0.2 mm 1 mps 659 mmHg 86%
    07:00 +23°C° 0.2 mm 1 mps 660 mmHg 85%
    08:00 +24°C° 0.2 mm 1 mps 661 mmHg 83%
    09:00 +26°C° 0.4 mm 1 mps 661 mmHg 74%
    10:00 +28°C° 0.4 mm 1 mps 661 mmHg 65%
    11:00 +30°C° 0.4 mm 1 mps 661 mmHg 56%
    12:00 +31°C° 0.5 mm 1 mps 661 mmHg 54%
    13:00 +32°C° 0.5 mm 1 mps 660 mmHg 51%
    14:00 +30°C° 0.5 mm 0 mps 660 mmHg 48%
    15:00 +29°C° 0 mm 0 mps 659 mmHg 50%
    16:00 +28°C° 0 mm 0 mps 659 mmHg 53%
    17:00 +27°C° 0 mm 0 mps 658 mmHg 55%
    18:00 +26°C° 0 mm 0 mps 658 mmHg 59%
    19:00 +24°C° 0 mm 0 mps 659 mmHg 63%
    20:00 +25°C° 0 mm 1 mps 659 mmHg 67%
    21:00 +24°C° 0.2 mm 1 mps 659 mmHg 72%
    22:00 +23°C° 0.2 mm 1 mps 659 mmHg 77%
    23:00 +23°C° 0.2 mm 2 mps 659 mmHg 81%
    Show more